Weather History for KDYS - August, 2013

Change the Weather History Date:

Monday, August 5, 2013

  Actual Average Record
Temperature  
Mean Temperature 88 °F -  
Max Temperature 98 °F 94 °F 105 °F (2011)
Min Temperature 79 °F 73 °F 66 °F (2005)
Cooling Degree Days 24    
Growing Degree Days 38 (Base 50)    
Moisture  
Dew Point 62 °F    
Average Humidity 43    
Maximum Humidity 67    
Minimum Humidity 28    
Precipitation  
Precipitation 0.00 in - - ()
Sea Level Pressure  
Sea Level Pressure 29.83 in    
Wind  
Wind Speed 13 mph (South)    
Max Wind Speed 18 mph    
Max Gust Speed 25 mph    
Visibility 10 miles    
Events      
Averages and records for this station are not official NWS values.
T = Trace of Precipitation, MM = Missing Value Source: NWS Daily Summary

Daily Weather History Graph

Daily Weather History Graph

Search for Another Location

Airport or City:

Trip Planner

Search our weather history database for the weather conditions in past years. The results will help you decide how hot, cold, wet, or windy it might be!

Date:

Astronomy

Aug. 05, 2013 Rise Set
Actual Time 6:56 AM CDT 8:33 PM CDT
Civil Twilight 6:30 AM CDT 8:59 PM CDT
Nautical Twilight 5:58 AM CDT 9:31 PM CDT
Astronomical Twilight 5:25 AM CDT 10:04 PM CDT
Moon 5:52 AM CDT 7:37 PM CDT
Length of Visible Light 14h 29m
Length of Day
13h 36m
Waning Crescent, 1% of the Moon is Illuminated
Aug 5
Waning Crescent
Aug 6
New
Aug 14
First Quarter
Aug 20
Full
Aug 28
Last Quarter

Hourly Weather History & Observations

Time (CDT) Temp. Heat Index Dew Point Humidity Pressure Visibility Wind Dir Wind Speed Gust Speed Precip Events Conditions
12:58 AM 84.9 °F 86.8 °F 65.3 °F 52% 29.85 in 10.0 mi SSE 11.5 mph - N/A   Clear
1:58 AM 82.6 °F 84.5 °F 65.5 °F 56% 29.84 in 10.0 mi SSE 10.4 mph - N/A   Clear
2:58 AM 81.0 °F 83.0 °F 65.7 °F 60% 29.84 in 10.0 mi South 10.4 mph - N/A   Clear
3:58 AM 82.0 °F 83.8 °F 64.9 °F 56% 29.84 in 10.0 mi South 17.3 mph - N/A   Clear
4:58 AM 81.1 °F 83.4 °F 66.4 °F 61% 29.84 in 10.0 mi South 12.7 mph - N/A   Clear
5:58 AM 80.1 °F 82.3 °F 67.1 °F 64% 29.84 in 10.0 mi South 13.8 mph - N/A   Clear
6:58 AM 79.2 °F - 67.3 °F 67% 29.85 in 10.0 mi South 13.8 mph - N/A   Clear
7:58 AM 80.1 °F 82.4 °F 67.5 °F 65% 29.86 in 10.0 mi South 16.1 mph - N/A   Clear
8:58 AM 83.7 °F 85.3 °F 65.1 °F 53% 29.87 in 10.0 mi South 16.1 mph 24.2 mph N/A   Clear
9:58 AM 87.1 °F 86.7 °F 59.9 °F 40% 29.88 in 10.0 mi SSW 18.4 mph - N/A   Clear
10:58 AM 90.3 °F 90.2 °F 60.4 °F 37% 29.87 in 10.0 mi SSW 15.0 mph - N/A   Clear
11:58 AM 93.0 °F 93.0 °F 61.2 °F 34% 29.87 in 10.0 mi SSW 12.7 mph - N/A   Partly Cloudy
12:58 PM 94.6 °F 95.1 °F 61.3 °F 33% 29.85 in 10.0 mi SSW 15.0 mph - N/A   Scattered Clouds
1:01 PM 95.0 °F 95.2 °F 60.8 °F 32% 30.01 in 10.0 mi SW 15.0 mph - N/A   Scattered Clouds
1:22 PM 95.0 °F 95.2 °F 60.8 °F 32% 30.00 in 10.0 mi South 16.1 mph 21.9 mph N/A   Scattered Clouds
1:58 PM 95.7 °F 96.3 °F 61.5 °F 32% 29.83 in 10.0 mi South 10.4 mph 20.7 mph N/A   Scattered Clouds
2:35 PM 96.8 °F 98.0 °F 62.6 °F 32% 29.97 in 10.0 mi South 16.1 mph 20.7 mph N/A   Scattered Clouds
2:58 PM 96.8 °F 97.5 °F 61.5 °F 31% 29.80 in 10.0 mi SSE 10.4 mph - N/A   Partly Cloudy
3:58 PM 97.5 °F 97.7 °F 60.4 °F 29% 29.77 in 10.0 mi South 13.8 mph 18.4 mph N/A   Scattered Clouds
4:58 PM 98.8 °F 99.2 °F 60.1 °F 28% 29.75 in 10.0 mi SSE 16.1 mph 20.7 mph N/A   Partly Cloudy
5:58 PM 98.6 °F 98.9 °F 60.1 °F 28% 29.74 in 10.0 mi SSE 13.8 mph 25.3 mph N/A   Clear
6:58 PM 97.3 °F 97.0 °F 59.2 °F 28% 29.73 in 10.0 mi SSE 15.0 mph - N/A   Clear
7:58 PM 94.6 °F 93.9 °F 59.2 °F 30% 29.72 in 10.0 mi SSE 12.7 mph - N/A   Clear
8:58 PM 90.1 °F 88.8 °F 57.0 °F 33% 29.71 in 10.0 mi SSE 10.4 mph - N/A   Clear
9:58 PM 83.1 °F 82.9 °F 58.5 °F 43% 29.74 in 10.0 mi South 5.8 mph - N/A   Clear
10:58 PM 80.6 °F 81.1 °F 59.0 °F 48% 29.75 in 10.0 mi South 5.8 mph - N/A   Clear
11:58 PM 79.7 °F - 59.4 °F 50% 29.75 in 10.0 mi SSE 8.1 mph - N/A   Clear